Location: Brno
(49.2000°N, 16.6330°E)
Time: 17:16:01
(UTC+02:00)

Meteor 1-4 Rocket - Visible Passes

Search period start: 21 April 2018 00:00
Search period end: 01 May 2018 00:00
Orbit: 451 x 507 km, 81.2° (Epoch: 20 April)

Date Brightness Start Highest point End Pass type
(mag) Time Alt. Az. Time Alt. Az. Time Alt. Az.
21 Apr 3.6 22:25:55 10° N 22:28:36 33° NE 22:28:36 33° NE visible
22 Apr 5.2 00:01:43 10° NW 00:02:52 14° WNW 00:02:52 14° WNW visible
22 Apr 4.0 21:59:49 10° NNE 22:02:38 23° ENE 22:02:38 23° ENE visible
22 Apr 4.6 23:34:49 10° NW 23:36:54 23° WNW 23:36:54 23° WNW visible
23 Apr 4.4 21:33:58 10° NNE 21:36:08 15° ENE 21:36:41 15° ENE visible
23 Apr 3.7 23:08:10 10° NNW 23:10:57 38° WNW 23:10:57 38° WNW visible
24 Apr 4.9 21:09:03 10° NE 21:09:32 10° ENE 21:10:02 10° ENE visible
24 Apr 2.6 22:41:39 10° NNW 22:45:00 68° W 22:45:00 68° W visible
25 Apr 2.3 22:15:16 10° N 22:18:46 70° ENE 22:19:05 64° ESE visible
26 Apr 3.0 21:48:59 10° N 21:52:19 41° ENE 21:53:10 34° ESE visible
26 Apr 5.0 23:25:10 10° NW 23:27:03 14° W 23:27:27 14° W visible
27 Apr 3.7 21:22:50 10° N 21:25:50 26° ENE 21:27:17 20° ESE visible
27 Apr 4.4 22:58:06 10° NW 23:00:50 22° W 23:01:34 20° WSW visible
28 Apr 4.3 20:56:53 10° NNE 20:59:18 18° ENE 21:01:25 11° ESE visible
28 Apr 3.8 22:31:22 10° NNW 22:34:33 34° W 22:35:42 26° SW visible
29 Apr 2.9 22:04:47 10° NNW 22:08:13 57° W 22:09:50 27° SSW visible
30 Apr 2.3 21:38:21 10° N 21:41:50 84° ENE 21:44:02 21° SSE visible
